Theta_e
303 303 303 303 303 302 302 301 301 302 302 302 301 301 301 302 302 302 302 303 303 302 301 300 301 303 303 303 302 300 299 299 300 299 299 302 303 302 303 304 305 306 306 306 305 306 309 308 308 307 308 310 310 311 312 313 313 313 315 315 315 315 315 315 315 315 316 317 316 316 316 316 318 315 323 333 336 341 345 344 343 342 343 342 342 341 341 344
302 302 303 303 303 303 303 303 302 302 303 302 302 302 302 302 302 301 301 301 301 302 302 300 300 302 302 302 302 300 299 299 299 300 304 306 305 304 305 305 305 306 306 307 305 306 309 309 309 308 309 310 310 310 311 312 313 314 315 314 315 315 314 316 316 315 316 318 317 316 316 317 317 318 322 329 341 345 345 345 344 344 344 342 342 341 342 344
301 300 301 302 302 302 302 303 303 303 303 303 302 302 301 302 302 302 302 301 299 299 300 300 300 301 302 302 301 300 299 300 299 303 309 309 307 306 306 306 306 306 306 306 306 306 309 310 309 309 310 311 310 310 310 312 313 313 314 314 314 314 314 315 316 315 317 318 318 317 315 317 316 318 321 322 338 343 343 345 344 344 343 342 342 341 343 345
301 301 301 302 302 302 302 302 302 302 302 302 303 303 302 301 301 301 302 302 301 300 299 299 300 299 301 302 300 300 299 299 300 304 308 308 307 307 306 307 307 307 307 306 306 306 309 310 309 310 311 311 310 310 310 312 312 313 313 313 313 313 314 314 315 316 317 318 318 317 314 316 315 315 319 323 332 339 341 339 336 339 341 341 342 341 343 344
302 302 302 302 302 302 302 302 302 302 302 301 302 302 303 303 302 301 302 302 302 303 300 300 301 298 300 302 300 299 299 300 304 306 308 307 307 306 306 307 307 308 308 307 306 306 309 310 309 310 311 311 310 310 311 312 312 312 313 313 313 313 314 314 315 315 316 317 316 315 314 315 318 321 324 325 325 328 333 331 326 331 334 338 341 341 343 343
302 302 302 302 302 302 302 302 302 301 301 301 301 301 302 303 303 303 302 302 302 303 302 302 302 298 299 301 299 299 299 300 305 307 308 308 308 306 305 306 307 309 308 307 306 306 309 310 309 310 311 311 310 311 311 311 311 312 313 313 313 312 314 314 314 315 315 315 314 315 314 317 326 331 330 326 321 321 325 324 325 331 333 335 339 341 343 343
302 302 302 302 302 302 302 302 302 301 300 300 301 301 302 302 303 303 303 303 301 302 303 303 302 298 299 300 300 301 300 300 301 303 303 304 307 306 304 305 307 309 309 308 306 306 309 310 309 310 311 310 310 311 310 311 311 312 312 313 313 313 314 314 314 315 314 313 314 313 313 319 324 328 334 333 326 323 324 324 327 334 337 338 339 340 341 341
302 302 302 302 303 302 303 303 302 301 300 300 301 302 302 302 302 302 302 303 302 302 302 303 302 299 299 301 301 302 301 301 301 301 300 301 304 304 303 305 306 308 309 309 306 306 309 310 310 309 310 310 310 310 310 311 311 311 312 312 313 312 313 314 314 314 313 313 313 313 313 316 315 322 338 340 329 326 331 331 332 338 340 340 339 340 341 342
302 302 302 303 303 303 302 302 302 301 301 301 301 302 303 302 302 302 301 302 303 302 302 302 302 300 299 301 302 302 302 301 302 302 301 301 302 302 302 304 305 306 307 308 306 307 309 310 310 309 309 310 309 310 310 311 311 312 312 312 313 313 313 314 314 314 314 313 312 314 312 313 318 325 338 340 334 333 338 339 338 341 342 340 340 340 340 342
302 302 302 302 302 302 302 302 302 302 302 301 301 302 302 302 302 301 301 301 301 302 303 302 302 302 300 300 302 302 301 300 301 300 300 301 302 302 302 304 305 305 306 308 306 307 309 309 310 309 309 309 310 310 311 311 310 311 312 312 313 313 314 313 315 314 314 314 313 314 312 319 328 326 332 338 339 338 340 342 343 343 343 341 341 341 341 341
301 301 301 302 301 301 302 303 303 302 302 302 301 301 302 302 302 301 301 300 301 302 303 302 302 303 301 300 301 302 300 299 299 299 299 299 301 302 302 303 305 304 305 307 307 307 308 309 310 309 309 309 309 310 310 311 310 311 311 312 312 313 314 313 314 313 314 314 314 315 315 327 333 325 326 336 338 338 339 343 344 343 343 342 342 341 340 341
301 301 301 301 301 302 303 303 303 303 302 302 301 301 301 301 301 301 300 300 300 300 302 302 302 303 301 300 300 301 299 299 298 299 299 299 299 300 301 303 304 304 304 306 307 307 307 309 309 308 308 308 309 309 310 310 310 310 310 311 311 311 312 313 314 312 313 314 314 315 315 322 329 326 330 336 339 342 341 343 344 343 343 342 342 341 341 341
302 302 302 301 301 303 304 303 303 303 302 302 302 301 301 301 300 300 300 299 299 300 301 302 302 302 301 301 301 300 298 298 298 299 299 299 299 300 301 302 303 304 304 306 307 308 307 308 309 308 307 307 309 309 309 309 310 310 310 311 311 311 311 313 314 312 313 313 314 315 312 315 323 330 338 341 342 343 342 344 343 343 343 342 342 341 341 341
302 302 302 302 302 303 304 303 303 303 302 302 302 301 299 299 299 299 298 298 298 300 301 302 302 302 301 301 300 298 298 298 299 300 300 301 301 301 302 302 303 303 304 306 307 308 308 308 309 309 308 307 308 308 308 308 310 310 310 310 311 311 311 312 314 313 313 313 314 314 311 312 320 333 342 343 343 343 342 344 343 343 343 342 342 341 341 341
302 302 302 303 302 303 303 303 303 303 303 303 302 300 298 298 298 297 297 297 298 299 301 302 302 302 301 301 299 298 299 299 300 300 301 302 302 302 302 302 303 303 304 306 306 307 308 308 308 309 308 308 307 308 309 308 309 310 310 310 310 310 310 311 313 314 313 312 313 313 313 314 317 330 342 342 342 343 342 343 343 344 343 342 342 341 341 341
302 302 302 302 303 303 303 303 303 303 303 303 303 300 298 298 298 297 298 297 298 298 300 302 301 300 301 301 299 299 299 299 299 300 301 302 302 302 302 302 302 303 304 306 307 306 307 307 308 308 308 308 307 308 309 309 309 309 310 311 311 310 310 310 311 313 314 312 312 312 315 317 318 329 341 342 342 343 342 343 342 343 343 342 342 342 342 341
302 301 301 301 303 303 303 303 303 303 303 303 302 299 297 298 298 299 299 299 298 298 299 301 300 300 301 300 300 299 299 299 299 299 300 301 301 301 302 303 302 303 305 306 306 306 307 307 306 308 307 307 307 308 309 310 310 310 310 311 310 310 310 310 310 311 313 312 312 313 314 320 324 332 341 342 342 341 341 342 341 342 343 342 342 342 341 341
301 301 301 301 302 303 303 304 303 303 303 303 302 298 298 299 299 300 300 300 300 299 300 300 300 300 300 299 300 300 299 299 299 299 299 300 300 300 303 305 303 304 305 306 306 306 307 307 306 307 307 307 306 307 310 310 311 311 311 310 310 310 310 310 310 310 312 312 312 313 312 322 331 334 340 343 342 341 341 341 341 341 342 342 342 341 341 341
301 301 301 301 301 303 304 304 304 303 302 303 301 298 299 300 300 300 301 300 300 300 300 301 300 299 299 298 299 299 299 299 299 299 299 299 300 300 303 304 303 305 306 306 306 306 307 306 306 306 307 307 306 308 309 308 309 310 310 310 309 309 310 310 311 310 312 312 312 313 311 320 333 334 337 343 343 342 341 341 341 341 341 342 341 341 341 340
301 301 301 301 300 302 304 304 304 303 303 302 300 298 300 301 300 301 301 300 300 300 300 301 300 300 300 300 299 299 299 300 300 300 300 300 300 301 302 303 304 305 306 306 306 307 307 306 306 307 307 307 307 308 308 307 308 309 309 309 309 310 309 309 311 309 311 313 311 313 312 317 331 334 336 342 344 342 341 341 340 341 341 341 341 341 340 340
300 300 301 301 301 302 303 303 303 303 303 301 299 299 301 301 301 301 301 301 300 300 301 300 300 301 301 300 300 300 301 301 300 300 300 300 300 300 302 304 305 305 306 307 306 306 306 307 307 307 307 307 306 306 307 307 307 308 309 309 309 310 309 310 311 309 310 312 313 313 311 316 329 334 335 340 343 342 342 341 340 340 341 341 341 341 340 340
300 301 301 301 303 303 303 303 303 303 302 300 299 300 300 300 301 301 301 301 301 300 301 301 301 301 300 300 300 301 301 301 301 300 299 300 300 300 303 305 305 305 305 306 307 306 306 307 307 307 306 306 306 306 307 307 307 308 309 310 310 309 310 310 309 311 311 310 316 315 311 317 330 334 335 338 340 341 342 341 341 340 340 341 341 341 341 340
300 301 301 302 303 303 303 303 303 302 301 300 300 300 300 301 301 301 301 301 301 300 300 300 300 300 300 300 300 300 301 301 301 301 299 301 301 301 304 305 304 305 305 305 307 306 307 307 307 307 306 306 306 306 306 307 308 308 308 310 310 309 311 308 310 319 319 317 321 318 315 323 331 334 334 336 339 340 341 342 341 341 340 340 341 341 341 340
300 301 301 302 302 303 303 303 302 301 300 300 300 300 301 301 301 301 301 301 301 300 300 300 300 300 300 300 300 300 301 301 301 301 300 301 303 302 304 306 305 305 305 305 307 307 306 306 306 307 306 306 307 306 306 307 308 308 308 309 310 309 310 310 316 325 325 324 325 320 319 327 331 333 334 336 339 339 340 342 341 341 341 340 341 341 341 341
301 301 302 302 302 302 302 302 302 300 300 299 299 300 301 301 301 301 301 300 300 300 299 300 300 300 300 300 300 300 301 301 301 301 300 301 303 303 304 305 305 305 305 305 306 307 306 306 306 307 306 307 306 306 306 307 308 308 308 308 308 309 310 316 322 322 319 322 325 320 317 322 330 332 333 336 339 339 339 341 341 341 341 341 341 341 341 341
301 301 301 302 301 301 302 302 301 300 299 299 300 301 302 301 301 301 300 299 300 299 299 299 300 300 301 301 301 301 301 301 300 300 300 301 302 303 305 305 305 305 305 305 306 306 306 306 306 306 307 307 306 307 307 307 307 309 309 308 308 309 311 320 323 315 313 319 325 323 315 320 332 332 332 336 338 339 340 340 341 341 341 341 341 341 341 340
302 301 302 302 301 301 302 302 301 300 299 300 301 301 301 301 301 300 299 298 299 299 299 299 300 300 301 301 301 300 300 300 300 300 300 301 302 303 304 305 306 305 305 305 306 306 306 306 306 306 307 307 307 307 307 307 307 308 309 308 308 308 309 317 319 315 319 322 326 329 319 319 330 331 331 335 335 337 340 340 340 340 340 340 340 340 340 339
303 303 303 303 302 302 302 302 301 300 300 301 301 300 301 301 300 300 298 299 300 300 300 300 300 300 301 301 300 300 300 300 301 301 301 301 302 303 303 305 306 305 305 305 305 306 306 307 306 305 307 308 308 307 306 307 307 307 308 307 308 309 308 311 314 318 326 324 322 330 324 315 323 330 331 334 334 335 338 339 338 339 340 340 340 340 339 338
304 304 304 304 304 303 302 301 301 300 300 301 301 300 300 300 300 299 297 300 301 300 302 302 301 301 301 301 301 300 301 301 301 302 302 301 302 303 302 304 305 305 305 305 305 305 305 307 307 306 306 308 308 308 306 306 307 307 308 307 308 309 308 310 310 316 327 325 319 327 325 314 319 330 333 334 334 334 334 336 336 337 339 339 339 339 338 338
304 305 305 305 304 303 302 301 300 300 300 302 301 300 300 300 300 299 299 300 300 301 303 303 302 302 302 302 301 301 301 301 301 302 302 302 302 302 302 303 304 304 304 304 304 304 304 307 307 306 306 308 308 307 306 307 307 307 307 308 308 309 309 311 312 314 323 325 321 326 327 317 316 327 333 334 334 333 332 334 334 335 337 337 338 338 338 338
304 305 305 305 303 302 302 301 301 300 300 301 301 300 300 300 299 300 302 301 299 301 303 303 303 303 302 302 302 302 301 301 302 302 302 303 303 302 302 303 304 304 304 304 304 304 304 305 306 306 306 307 308 307 307 307 307 307 308 308 309 310 310 311 313 312 315 318 318 323 328 322 316 321 330 333 332 331 331 333 334 334 336 337 337 337 337 338
305 305 305 305 304 303 302 301 301 301 301 301 301 300 300 301 300 301 302 301 301 302 303 302 303 303 303 302 302 302 302 302 302 302 302 302 302 302 302 303 304 305 304 304 304 304 304 304 305 306 307 307 308 308 308 307 306 307 308 308 309 310 311 311 312 312 313 313 315 321 328 326 321 322 327 331 332 331 331 333 334 335 336 337 337 337 337 337
305 306 305 305 304 304 303 302 301 302 302 301 300 300 300 301 302 302 301 302 303 302 302 303 303 303 303 303 303 303 303 303 302 302 302 302 303 303 302 303 303 304 304 304 304 304 304 305 304 305 307 307 309 309 309 308 307 307 308 309 309 310 311 312 312 312 312 313 316 322 326 326 323 322 325 328 331 332 332 334 334 335 337 337 337 337 336 336
305 306 305 305 305 305 304 302 301 302 302 301 301 301 301 302 303 303 302 302 302 302 302 303 303 303 303 304 304 303 303 303 302 302 302 302 303 303 303 302 302 304 305 304 304 305 305 306 305 306 307 307 308 310 309 308 308 308 308 308 310 311 311 312 312 312 314 318 322 324 324 321 319 320 324 327 330 333 333 334 334 335 336 336 336 336 336 336
305 306 305 305 305 305 304 302 301 302 302 301 301 301 302 303 303 303 303 303 303 303 303 304 304 304 304 304 304 304 303 304 303 302 301 302 303 304 304 303 302 304 304 304 304 305 305 306 305 306 307 307 308 309 308 309 309 308 307 308 310 311 312 312 312 314 318 321 324 326 323 320 319 320 324 326 328 332 333 334 334 333 334 335 335 336 336 336
305 306 305 305 305 304 305 304 301 301 302 302 302 302 303 303 303 303 304 303 303 303 304 304 304 304 305 304 304 304 303 303 303 302 301 301 302 303 303 303 303 304 304 305 305 305 305 306 305 305 306 307 308 309 308 309 310 308 307 309 310 310 313 314 312 313 316 316 319 324 324 322 320 321 325 326 325 329 331 332 334 333 334 334 335 335 335 335
305 306 306 305 305 304 304 304 302 301 302 302 302 303 303 303 303 303 303 304 304 304 304 305 305 305 305 305 304 304 303 303 303 302 302 301 302 303 303 303 304 304 304 305 305 305 305 306 306 306 306 306 308 309 308 309 309 308 308 309 309 309 311 314 313 313 314 313 317 321 323 324 319 318 327 329 326 328 329 330 333 334 335 335 335 335 335 334
305 306 306 305 305 305 304 304 303 301 302 302 302 304 304 304 304 304 303 304 304 304 305 305 305 305 305 305 304 303 303 303 303 302 301 301 302 302 303 303 304 305 305 304 305 305 305 306 306 306 307 307 307 308 309 308 308 308 309 309 310 310 310 312 313 314 314 313 316 320 323 324 319 317 328 331 328 329 329 330 332 333 335 336 335 336 335 334
304 306 306 305 305 305 304 303 302 301 302 302 303 304 304 304 305 305 305 304 304 304 305 305 305 305 304 304 304 303 303 303 302 302 301 302 302 302 302 303 304 304 305 305 305 306 306 306 306 306 307 307 306 307 309 309 307 307 309 309 309 310 311 312 313 314 315 314 315 318 321 322 320 320 326 329 329 330 331 331 332 333 336 336 336 336 335 334
304 305 305 305 305 304 304 303 302 301 302 303 303 303 304 304 304 305 305 304 304 305 305 305 305 305 305 304 304 304 303 302 302 302 301 301 302 302 302 303 304 304 304 305 305 305 306 307 307 306 306 307 307 308 309 310 308 308 309 309 309 309 310 311 312 312 314 315 314 316 318 319 322 323 324 327 330 330 331 332 332 334 336 336 336 336 335 334
304 306 305 304 304 304 303 303 302 302 302 303 303 303 304 304 305 305 305 304 304 305 305 305 305 305 306 305 305 304 303 302 302 302 301 301 301 302 302 303 304 304 304 305 305 305 306 307 308 308 307 307 308 307 308 310 309 308 309 309 309 310 309 310 311 311 312 313 315 317 316 316 323 326 324 326 329 330 331 332 333 335 336 336 336 336 335 335
303 305 305 304 304 304 303 303 303 302 302 303 304 304 305 305 306 306 305 305 304 304 304 305 305 306 306 305 305 305 304 303 302 302 302 301 302 302 302 303 305 304 305 305 305 306 308 307 307 308 308 308 308 307 308 309 309 308 308 308 309 311 311 309 310 312 312 312 316 317 314 315 322 323 324 326 327 328 331 333 334 335 336 335 336 335 335 335
302 304 304 304 304 304 303 304 304 303 303 304 304 305 305 306 306 306 306 305 304 304 304 305 305 305 306 305 305 305 305 304 303 303 303 302 302 302 302 303 304 304 305 305 305 307 308 307 307 309 308 308 307 306 307 308 308 308 308 308 308 309 311 311 312 314 312 312 314 314 313 315 319 320 323 326 325 328 331 333 334 334 334 335 334 335 335 335
302 303 303 303 303 303 304 305 305 304 304 304 304 304 305 305 305 306 306 305 305 304 305 305 304 304 305 305 305 306 305 305 304 303 303 303 303 303 302 303 304 305 305 306 307 307 307 307 308 309 310 309 308 308 307 307 308 309 309 309 308 309 311 313 314 314 312 312 313 312 313 314 319 323 326 327 327 329 331 332 333 334 334 334 334 334 335 334
302 303 303 302 303 303 304 304 304 304 304 304 304 304 306 307 307 307 307 306 305 304 305 306 305 304 304 305 305 305 305 306 306 305 304 304 303 303 303 303 304 305 306 307 308 307 308 309 309 309 310 310 309 309 309 308 308 309 310 309 308 309 311 313 313 312 312 314 313 312 312 313 319 327 331 330 328 329 331 332 333 333 333 334 333 334 335 334
302 303 303 302 302 303 304 304 304 303 304 303 304 305 307 308 308 307 308 307 305 303 303 305 304 304 305 305 305 306 306 306 306 306 306 305 305 304 302 303 304 305 306 308 308 308 311 312 310 309 311 310 310 310 309 309 308 309 309 309 308 309 311 314 313 311 313 315 314 314 316 315 316 321 329 332 331 330 331 332 333 333 333 333 334 334 334 333
302 303 303 302 302 303 303 304 304 303 303 303 304 306 307 307 307 308 308 308 307 305 305 305 304 305 306 306 306 307 307 306 306 307 307 307 307 305 303 303 304 305 307 309 308 310 313 313 311 312 312 310 310 311 310 309 309 309 309 310 309 310 312 314 313 314 318 315 312 318 324 319 315 315 323 332 332 331 331 332 333 333 333 333 334 334 333 333
300 301 302 301 301 302 302 302 303 302 302 303 305 306 307 306 306 307 307 308 308 308 308 308 306 306 307 307 307 308 307 305 306 307 307 308 308 306 304 303 304 305 307 309 310 313 313 312 312 312 312 310 310 311 310 310 310 309 309 311 310 310 313 314 314 318 320 314 311 320 326 321 317 317 322 327 330 331 331 331 332 332 333 333 333 333 333 333
299 299 300 300 300 301 301 301 302 302 302 303 305 306 305 305 306 306 305 307 309 309 310 310 309 307 307 307 309 310 308 307 308 308 308 310 310 307 305 305 304 305 306 308 312 314 312 311 313 313 311 312 312 312 311 311 311 310 309 310 311 311 312 312 313 317 319 317 318 322 325 324 321 319 322 325 328 331 330 330 331 332 333 333 333 333 333 333
298 299 299 299 299 299 300 300 301 302 302 303 305 305 304 304 305 304 304 306 309 310 310 309 309 308 308 309 311 311 309 309 311 310 309 310 309 307 306 307 306 306 306 308 312 312 310 311 313 313 311 313 314 314 313 311 311 312 310 309 310 312 313 312 313 316 316 316 319 320 321 322 322 324 326 326 329 330 330 330 331 332 332 332 332 333 332 332
297 297 298 298 299 300 301 301 301 301 302 304 304 303 303 304 304 303 304 306 308 309 309 309 309 309 309 309 310 310 309 309 311 311 311 311 310 309 309 309 308 306 306 309 313 313 312 313 313 311 312 313 314 314 313 311 311 311 310 310 311 312 314 313 314 316 315 314 318 319 317 316 321 329 330 328 328 330 330 331 331 332 332 332 332 332 332 333
296 297 298 298 299 300 301 301 300 301 303 304 304 303 302 303 303 303 304 307 308 308 308 309 309 310 310 310 310 310 310 310 311 311 311 311 311 312 312 311 308 307 307 311 316 316 314 313 312 312 313 314 314 313 311 310 309 310 311 312 312 313 314 314 314 317 318 316 317 317 315 318 326 330 331 331 329 329 331 331 331 331 332 332 332 332 332 332
Wind_Speed
13 13 14 15 16 16 16 16 16 16 16 15 15 15 15 15 15 16 16 16 17 17 17 17 19 20 20 21 20 19 19 18 17 17 16 14 12 11 13 17 20 19 16 17 18 16 14 15 17 18 16 16 16 16 18 16 13 10 5 6 9 7 7 9 10 9 7 7 8 12 16 10 6 6 5 4 5 9 8 6 8 9 10 11 9 7 13 23
14 13 13 14 16 17 17 18 18 17 17 17 16 17 16 16 16 16 16 16 17 17 17 18 19 19 20 21 19 19 19 18 19 16 12 10 8 8 11 15 19 19 18 18 17 17 16 14 16 17 16 15 13 15 17 15 16 10 3 6 10 6 7 11 13 11 9 9 10 14 20 16 11 9 8 4 5 9 6 4 6 7 7 10 9 9 17 25
14 14 13 13 15 16 17 18 18 18 18 18 17 18 17 17 17 17 17 17 17 17 18 18 19 19 19 21 20 19 18 19 17 8 6 6 4 4 8 13 17 18 18 18 17 18 17 13 14 16 17 14 12 16 16 15 16 11 6 8 7 5 6 11 16 17 16 14 11 12 16 16 14 12 10 5 6 8 6 6 6 8 10 11 12 14 22 27
15 15 15 15 16 16 17 18 18 18 18 18 18 18 18 18 18 17 17 17 17 17 18 18 19 19 18 21 21 18 17 18 10 5 7 6 4 3 8 12 15 16 16 17 18 19 18 14 13 16 17 11 12 14 13 16 14 9 9 8 3 6 7 11 18 22 22 19 14 10 9 12 14 13 11 8 6 5 8 12 11 12 15 16 17 20 25 29
16 16 17 16 16 16 17 17 18 18 18 18 18 17 18 19 19 18 17 17 17 17 17 18 18 18 18 21 21 18 14 9 1 4 5 6 5 4 8 11 13 14 14 17 20 20 18 15 13 15 14 7 10 10 9 18 15 7 9 5 5 9 7 11 20 23 23 20 13 9 8 10 12 11 13 13 8 5 8 12 14 15 16 17 19 23 28 31
17 17 16 16 17 17 18 18 18 18 18 18 18 17 17 17 19 19 19 18 18 17 18 18 17 17 18 19 21 18 10 4 2 2 2 4 5 6 8 10 9 10 12 17 20 20 18 16 14 13 11 5 10 10 7 18 17 7 7 6 8 11 8 9 19 22 20 17 10 8 8 10 10 7 13 15 9 6 7 10 11 15 16 16 19 25 29 32
16 16 16 17 17 18 19 19 19 19 19 19 19 18 17 17 18 18 19 19 18 18 18 18 18 16 17 19 20 16 9 11 9 9 9 8 9 9 10 8 8 8 10 16 19 21 19 18 16 12 9 5 9 10 6 15 16 10 6 6 10 14 11 9 15 19 19 16 11 9 7 9 9 7 10 11 10 9 10 11 12 15 17 19 21 25 29 31
16 16 16 17 17 19 19 20 21 21 20 19 18 18 18 18 17 17 18 19 19 18 17 18 19 16 17 19 17 14 15 14 9 9 12 12 14 14 12 6 6 7 6 13 18 20 19 18 17 13 9 6 6 8 8 10 11 13 8 5 8 12 14 13 11 13 15 14 12 9 5 7 8 6 7 8 10 10 11 12 15 17 20 23 24 26 29 31
16 16 16 17 17 18 19 21 22 21 20 19 18 18 19 19 18 18 18 18 18 18 18 18 19 18 16 16 13 11 13 7 6 7 8 9 13 13 11 7 5 5 5 11 17 19 17 16 18 14 6 5 7 8 11 10 8 12 10 6 6 7 12 17 15 12 11 10 11 8 4 5 7 6 5 6 8 6 8 12 16 20 23 24 25 26 29 31
16 16 16 17 17 18 20 22 22 22 21 20 19 18 20 20 20 18 17 18 17 17 18 17 18 18 16 14 9 7 8 6 8 12 12 12 12 11 10 8 8 6 5 9 15 18 17 13 16 15 5 4 8 8 12 11 3 6 10 9 8 6 7 13 15 15 11 7 8 7 3 4 8 8 5 6 8 7 9 12 16 20 22 22 22 24 27 29
16 16 17 18 18 18 20 21 22 23 22 21 20 20 20 20 20 19 17 17 18 17 17 17 17 17 17 15 11 11 11 13 16 17 16 17 15 13 12 10 10 8 5 7 12 17 18 13 12 13 6 4 8 5 10 11 1 3 9 10 10 9 7 10 10 11 11 7 8 8 2 2 6 6 5 10 12 10 11 13 15 18 18 19 19 20 23 25
17 18 19 19 18 17 18 20 21 22 23 23 22 21 20 21 20 19 17 18 19 18 17 16 16 17 18 18 22 20 18 21 22 20 16 16 17 15 14 13 12 10 8 6 8 12 16 15 12 12 6 4 7 4 7 13 6 1 5 6 7 8 10 15 9 7 9 6 10 11 5 7 8 5 9 15 14 12 13 14 16 18 18 18 18 19 20 21
19 19 20 20 17 16 18 19 20 22 22 23 23 22 22 21 21 19 18 17 18 17 16 15 16 19 17 19 25 21 22 25 22 17 12 12 15 14 13 14 13 12 11 7 6 7 12 16 15 14 8 3 4 3 3 8 8 4 4 4 4 5 9 16 13 9 10 6 13 15 8 10 9 8 13 17 16 15 14 15 17 18 18 18 19 19 19 19
20 20 20 20 18 17 18 19 20 22 22 23 23 24 23 21 20 19 17 17 18 16 15 14 15 17 15 21 26 23 21 19 12 9 8 9 10 8 8 10 12 13 12 9 6 6 9 15 18 15 10 8 4 2 1 4 7 6 4 4 6 6 5 12 16 14 11 7 16 17 10 7 8 9 16 17 18 19 17 17 18 19 19 19 20 20 20 20
20 20 20 20 19 17 18 19 20 21 23 23 23 25 24 21 19 18 18 18 16 16 15 14 15 15 15 24 27 18 11 8 6 7 7 8 8 5 5 7 10 12 13 11 8 7 7 11 15 11 8 10 7 4 2 4 5 6 6 6 9 9 3 7 12 17 15 7 14 16 8 4 5 9 17 19 20 20 18 18 19 21 20 21 22 22 22 22
20 20 20 20 19 18 19 21 21 21 23 23 24 25 23 20 19 18 18 17 15 15 14 13 14 11 10 16 15 7 6 8 9 10 8 8 10 9 9 9 9 11 13 12 9 8 7 7 10 10 6 6 6 4 4 4 4 7 9 8 9 11 6 5 5 14 18 10 11 15 6 1 3 10 17 20 21 20 17 18 20 22 21 23 23 23 24 25
21 21 20 18 18 19 20 22 22 22 22 24 26 25 21 19 18 17 16 14 12 12 10 9 9 8 11 16 12 11 13 11 10 12 9 8 11 12 13 12 8 9 14 14 10 8 9 7 8 8 6 5 5 5 6 8 8 8 10 7 6 10 9 7 3 7 17 15 12 15 9 1 2 11 19 21 23 21 19 19 22 23 23 23 23 23 24 26
21 22 21 18 17 18 20 21 22 22 23 25 26 24 21 17 15 14 12 10 7 6 5 6 4 4 9 12 10 11 13 13 16 19 13 9 10 11 12 10 7 8 12 12 10 9 9 7 7 6 6 6 6 8 10 8 7 9 11 7 4 6 9 10 5 6 15 18 14 14 12 5 3 10 18 22 25 23 21 21 23 23 23 23 22 22 24 27
22 23 23 20 16 17 19 20 20 22 24 25 25 22 16 12 12 10 7 8 6 4 4 6 8 5 7 10 13 15 18 22 26 25 17 11 11 10 11 10 7 9 10 8 9 11 9 6 6 7 9 12 13 15 10 1 2 6 7 6 6 6 7 9 6 7 15 16 14 15 14 9 7 11 16 19 24 25 22 20 20 21 21 20 21 23 26 29
22 22 23 21 16 15 19 20 19 21 23 25 24 19 11 9 8 4 6 12 14 12 13 15 17 19 22 25 27 26 26 26 26 24 17 13 11 9 10 9 7 8 9 9 8 10 11 7 8 11 13 15 15 13 5 6 2 7 8 7 8 7 5 7 8 8 12 13 12 14 14 12 11 13 16 17 20 22 21 19 20 21 21 21 23 27 29 30
22 20 20 19 16 17 19 19 19 20 23 22 20 13 7 7 5 5 11 15 19 19 20 23 24 27 30 32 31 29 26 23 24 23 15 12 12 8 5 4 5 6 9 10 7 7 10 9 12 13 8 8 8 7 6 3 2 4 8 10 8 8 6 8 10 8 9 10 7 9 12 13 13 12 16 18 16 18 21 22 23 24 23 22 25 30 30 28
21 19 19 18 18 19 19 19 19 21 22 19 14 9 6 7 6 9 12 12 20 25 23 23 23 27 29 29 28 28 20 15 21 23 12 8 12 9 6 5 7 7 6 9 7 6 9 11 13 9 3 5 8 9 12 9 2 2 5 9 8 8 7 6 7 4 7 8 3 8 11 10 11 12 15 19 19 21 25 26 26 27 26 25 26 29 28 24
21 19 19 18 18 20 20 20 20 21 20 15 10 9 8 8 6 10 11 11 18 22 20 17 17 20 21 18 17 17 15 11 14 18 10 7 11 12 10 7 8 7 6 12 11 9 8 9 8 8 5 9 11 12 13 10 5 2 3 7 7 9 9 7 5 3 3 3 2 9 9 4 7 10 12 18 21 22 25 27 27 26 26 26 27 26 24 22
20 18 19 19 18 19 19 21 20 17 14 9 9 10 8 6 7 10 10 8 11 12 11 8 8 12 12 9 6 9 12 11 11 9 4 10 12 11 10 8 7 7 9 15 17 13 7 2 8 14 10 11 12 12 14 11 7 5 3 4 5 10 10 5 6 5 4 1 4 10 6 2 7 11 10 13 17 19 22 25 24 25 25 24 24 24 23 23
20 18 18 19 18 18 19 19 16 11 9 8 8 8 6 6 8 10 8 6 6 6 5 3 5 6 3 3 3 5 7 9 13 10 5 12 13 8 7 8 7 8 12 15 15 13 8 1 7 17 14 11 11 11 15 13 8 6 6 6 4 8 9 7 10 9 6 4 7 9 6 4 7 12 11 10 11 14 17 18 21 25 25 22 23 25 24 25
21 19 18 18 18 18 17 15 11 9 9 7 6 6 7 8 9 9 6 3 3 3 1 0 2 1 0 3 3 3 4 4 9 11 8 12 13 8 6 7 6 8 10 10 8 7 7 5 4 11 16 14 11 10 14 15 10 6 5 7 6 5 6 9 11 10 6 5 6 7 7 4 5 10 13 11 12 14 13 13 18 22 23 22 22 23 23 26
22 19 17 17 17 16 14 12 12 11 9 5 4 5 7 7 7 8 4 2 2 1 1 1 3 1 2 4 4 5 2 6 11 8 9 12 13 9 8 7 6 6 5 6 6 4 9 12 6 6 14 15 12 9 12 16 12 6 4 8 9 5 4 6 8 7 3 3 5 5 5 3 3 8 13 14 15 16 13 13 16 18 20 21 22 22 25 28
22 20 18 17 16 14 12 12 12 10 5 4 3 4 5 5 5 4 2 2 1 1 2 2 3 2 2 2 8 8 7 9 7 4 3 11 14 7 7 8 7 7 8 9 8 4 9 16 11 6 9 11 11 7 10 15 11 4 4 7 8 7 5 3 3 3 2 3 7 7 5 5 4 5 11 15 16 17 17 16 17 18 20 23 24 26 30 32
23 21 19 17 15 12 9 9 8 5 3 3 2 2 2 3 3 2 0 1 1 0 2 2 3 2 1 1 7 11 9 5 4 4 5 7 15 8 4 7 8 8 10 11 8 2 5 15 14 8 7 8 8 7 10 14 9 4 6 6 5 4 4 3 2 2 3 5 10 11 11 8 3 4 9 14 15 16 16 15 18 23 27 28 27 28 29 30
24 21 17 15 12 10 9 8 4 4 4 3 2 1 0 1 1 1 1 1 1 0 1 2 3 3 2 1 4 6 6 5 5 6 3 4 13 11 6 4 6 6 7 8 8 4 1 10 13 8 6 5 6 8 11 14 9 6 8 6 4 3 2 2 1 1 3 6 8 12 14 9 5 5 9 11 11 14 14 13 18 24 30 32 30 28 26 26
24 19 14 11 9 8 8 8 4 2 2 3 2 2 1 0 0 1 1 0 1 1 0 2 2 2 3 3 3 2 3 5 4 5 4 2 9 9 5 3 5 4 5 5 8 8 4 5 7 6 8 6 6 10 11 13 10 7 10 8 4 4 2 2 2 2 6 7 3 9 12 9 8 6 8 10 9 14 16 15 19 23 28 31 30 29 27 25
22 15 11 9 7 6 7 6 3 0 3 4 3 3 2 1 1 3 2 3 2 1 0 1 2 3 3 4 5 5 4 5 3 4 5 4 7 7 5 5 4 4 6 6 7 8 5 3 4 5 10 11 8 10 10 11 9 7 10 10 6 6 4 4 5 4 6 4 1 7 12 8 8 4 7 12 12 15 18 18 21 24 28 30 29 29 28 26
18 12 10 9 7 7 6 5 2 2 4 5 4 3 1 2 2 4 3 1 1 1 1 2 4 5 4 4 6 6 4 4 4 4 4 5 7 8 6 5 2 1 4 6 7 6 4 3 5 6 9 12 11 10 10 10 10 10 10 11 10 8 6 7 7 4 4 1 2 7 12 7 5 3 8 15 15 18 23 26 27 27 26 26 25 26 28 29
14 10 10 8 7 7 6 4 2 4 5 5 4 3 1 3 3 3 3 3 2 2 2 2 5 7 7 8 9 6 4 4 5 5 4 6 7 7 6 7 6 2 1 6 5 6 7 4 8 9 7 12 14 9 7 9 10 9 4 4 7 6 5 5 6 4 3 3 3 6 8 5 3 3 6 13 16 20 24 24 23 21 17 16 18 22 26 29
11 9 10 8 7 7 6 5 4 6 6 6 4 1 3 4 3 3 3 3 2 3 4 4 5 9 9 8 8 7 7 5 5 5 4 5 6 7 7 7 7 3 1 5 3 4 6 2 4 5 3 11 15 7 5 7 9 6 1 2 6 5 2 2 1 1 3 3 3 4 4 2 1 1 1 4 9 14 17 17 15 14 12 13 17 22 26 29
7 6 11 9 8 8 6 5 5 7 7 6 2 2 4 4 3 3 1 2 3 3 6 7 6 6 6 4 3 4 7 4 3 4 4 4 4 6 7 4 6 7 4 3 2 3 5 2 3 5 4 10 14 10 9 9 7 5 5 6 4 2 3 3 1 2 1 4 4 3 3 1 1 1 3 2 6 9 11 13 14 15 15 17 20 24 28 30
6 2 11 11 9 9 7 4 5 8 8 5 2 4 4 4 5 4 2 3 4 3 5 5 2 3 3 3 2 2 6 4 3 4 4 4 3 4 7 3 4 9 6 2 0 0 4 3 3 8 9 9 10 12 12 9 4 4 7 6 4 3 1 1 2 2 3 6 3 3 5 3 4 3 2 3 8 9 11 13 15 16 17 20 23 26 29 30
7 1 8 13 10 9 8 4 5 9 7 3 5 6 4 4 5 5 4 4 4 4 4 3 2 2 2 3 2 2 6 4 4 5 4 4 2 3 7 5 4 8 7 4 0 2 3 4 3 8 11 7 6 9 10 7 4 3 5 5 3 4 4 1 2 3 5 5 2 3 4 3 6 5 2 6 10 11 12 13 14 16 18 22 25 26 28 29
8 1 5 13 11 9 9 4 6 9 5 2 5 5 4 5 8 10 10 8 7 5 4 4 4 3 2 3 2 3 6 4 4 5 3 3 2 2 6 5 3 6 6 6 3 1 1 3 3 6 7 7 6 7 9 9 4 1 4 5 1 2 4 3 1 1 3 4 3 4 3 3 5 5 5 9 12 13 13 13 14 17 22 26 26 26 29 31
7 2 3 13 12 10 9 1 7 7 2 3 5 4 5 7 10 14 14 11 8 5 4 4 5 4 3 3 2 2 5 4 4 4 3 4 3 2 5 5 5 6 5 6 5 0 2 2 3 3 3 6 7 6 8 10 8 5 8 8 5 2 1 2 2 0 1 2 3 4 4 3 4 5 8 11 12 13 15 15 15 18 25 29 27 27 31 32
8 1 3 12 12 8 4 2 6 3 2 4 4 5 7 8 10 14 13 12 10 7 6 5 5 4 3 3 3 2 3 4 4 4 4 5 4 2 6 8 8 7 5 3 4 2 1 2 1 3 4 6 5 4 6 10 9 7 6 6 6 5 3 6 7 2 1 0 1 3 3 2 3 4 8 9 8 10 15 16 16 19 26 26 23 26 30 29
9 1 3 10 10 5 1 2 3 3 3 5 7 8 11 11 10 11 9 9 9 7 7 6 5 6 5 4 3 1 2 3 4 5 4 5 7 4 8 13 11 9 7 3 2 3 2 1 2 1 3 3 2 3 5 10 9 5 4 4 5 5 6 8 7 4 2 1 0 0 2 1 2 1 4 4 2 5 11 12 10 13 18 18 18 23 26 26
8 2 2 6 7 2 2 2 3 2 4 8 12 14 14 9 6 7 5 5 5 4 5 4 3 4 4 4 3 2 3 3 4 6 4 4 8 6 9 15 13 10 8 4 2 4 3 1 1 1 2 0 1 1 2 6 8 5 5 5 6 8 7 5 2 2 4 4 3 2 3 2 1 0 3 3 2 5 10 11 8 8 10 14 18 23 26 26
8 5 3 4 5 1 2 3 3 4 7 10 12 14 13 7 6 8 7 4 3 2 3 3 3 3 3 3 3 2 3 2 4 6 4 3 5 4 10 16 12 9 7 3 4 6 3 2 1 2 5 4 3 4 3 6 8 8 8 8 7 7 6 2 1 2 5 6 5 4 4 4 2 2 1 2 5 7 9 13 13 11 14 18 21 23 25 25
8 4 2 4 4 3 4 3 4 5 9 11 11 13 11 6 7 11 11 7 4 3 2 2 2 3 2 2 3 3 3 3 3 3 2 3 3 2 10 17 14 9 7 7 9 8 3 2 2 2 5 8 7 5 4 5 6 5 7 9 8 7 9 6 3 5 6 4 4 6 7 7 4 2 4 4 5 7 8 11 13 13 17 21 24 24 25 28
5 2 3 6 4 4 6 6 5 4 6 9 10 9 9 9 10 9 8 5 3 3 3 2 2 3 2 3 3 4 5 6 5 2 3 4 3 1 10 19 18 12 9 10 13 8 1 1 4 3 3 3 2 1 2 2 4 6 9 11 9 7 9 6 3 5 5 3 3 7 7 9 12 8 2 5 6 7 8 10 12 15 18 23 25 24 26 31
4 1 3 5 4 3 4 4 3 4 8 10 6 5 9 13 12 7 3 2 2 4 4 3 4 3 3 4 3 4 5 6 6 5 5 5 3 2 7 16 16 13 10 12 13 7 0 2 3 4 5 5 6 6 3 1 5 9 10 11 10 8 8 8 7 4 4 4 6 5 3 5 13 15 4 5 6 6 7 10 13 17 20 23 25 25 27 30
5 1 1 3 3 2 2 4 7 10 13 11 5 5 11 14 14 10 5 4 3 3 2 1 3 4 4 5 3 3 4 4 5 5 4 5 4 1 3 6 8 12 13 10 9 5 2 3 2 2 6 7 7 8 6 4 5 7 8 10 11 11 11 11 8 3 4 5 4 2 3 6 12 12 4 2 6 8 8 11 13 17 21 23 25 26 28 31
6 3 2 3 4 6 8 11 13 13 12 9 4 5 10 14 15 12 7 5 6 2 2 1 5 6 7 8 5 4 4 3 3 4 3 4 5 3 3 2 5 14 14 8 5 3 2 2 1 1 5 9 10 10 8 7 6 7 9 11 13 13 13 13 10 6 5 5 3 2 5 9 12 8 4 2 5 8 10 13 15 19 23 25 26 28 30 32
6 5 7 8 7 9 11 11 11 10 8 5 3 5 8 11 13 15 11 7 8 4 2 1 9 10 7 6 3 4 5 4 3 4 4 4 4 4 4 2 4 12 13 8 4 2 1 1 1 2 5 9 10 9 8 10 10 9 10 10 11 12 12 12 11 7 4 5 5 4 5 8 8 2 3 2 7 10 11 15 19 21 24 26 27 29 30 30
9 7 8 8 6 6 7 6 6 6 5 3 3 7 9 10 13 17 13 9 9 7 5 6 11 10 5 4 3 5 8 8 7 7 7 4 3 2 2 2 5 8 9 6 3 1 1 1 1 2 5 7 5 4 3 7 7 7 9 11 12 11 9 9 7 6 6 8 7 4 6 9 5 2 3 2 7 9 11 16 20 22 25 26 26 27 28 30
14 11 8 6 5 4 5 6 4 4 3 2 5 8 9 12 15 15 11 5 9 11 11 10 11 9 4 3 4 5 8 9 10 10 9 8 6 5 6 5 10 10 7 4 1 1 2 1 1 1 4 5 4 2 5 9 5 4 8 11 13 11 7 6 4 4 7 8 6 6 8 7 1 1 3 5 8 9 11 17 22 24 26 27 27 28 30 32
Wind_Direction
356 356 353 353 355 355 354 355 353 350 347 347 346 345 344 345 345 343 341 340 338 337 334 332 331 330 330 326 324 324 320 314 308 308 308 299 286 274 267 259 251 246 238 240 241 233 224 221 218 212 205 202 205 201 199 201 191 187 197 224 225 208 191 170 171 180 164 179 198 207 214 210 215 217 166 143 131 131 140 169 196 211 228 242 254 245 195 181
353 356 355 352 351 351 351 349 349 348 344 343 342 341 341 341 341 339 338 338 336 336 333 332 331 331 330 326 325 328 324 316 313 311 302 286 275 270 267 266 257 249 241 234 236 231 223 221 218 212 199 196 197 190 192 190 187 192 188 223 223 199 177 170 177 177 170 190 187 200 212 208 222 215 178 181 150 139 134 147 192 207 217 224 226 204 188 182
355 358 357 353 350 349 347 342 342 342 340 340 337 336 336 335 336 335 336 336 334 333 331 331 330 331 332 326 327 333 327 319 317 300 259 252 234 265 276 275 264 252 243 231 230 229 222 214 213 208 196 195 190 182 185 183 189 200 201 226 223 167 178 187 186 186 188 196 189 197 206 204 220 212 187 192 169 165 176 171 184 197 193 196 199 190 185 183
356 356 354 352 348 346 342 338 336 337 335 334 333 333 331 329 329 330 331 331 332 331 329 329 328 331 334 327 328 336 332 323 314 227 220 214 188 289 292 284 272 260 247 227 223 225 218 205 202 200 195 197 188 183 186 184 182 187 202 225 184 153 196 200 195 197 197 201 203 193 182 195 212 206 184 168 172 197 213 211 219 220 207 197 191 186 186 186
352 351 350 347 344 341 337 335 333 333 330 328 328 328 326 326 325 324 325 325 329 330 329 328 326 330 330 326 328 338 339 329 287 194 224 195 193 314 314 298 282 268 251 226 219 218 213 200 190 191 196 195 179 186 200 190 179 174 210 217 145 168 197 198 199 204 203 205 208 182 167 186 195 192 178 179 205 225 216 228 239 239 230 216 201 189 188 190
348 347 344 341 339 336 333 330 328 326 326 325 324 323 320 320 320 321 321 322 325 326 329 327 327 330 326 325 327 335 339 289 219 237 264 206 233 301 327 319 299 277 248 225 216 212 207 195 186 187 196 197 188 192 194 190 190 203 218 200 178 185 185 189 201 208 208 207 206 185 181 179 166 164 179 190 214 219 224 240 243 241 239 229 209 194 192 194
343 342 339 339 337 334 331 328 326 324 323 323 322 322 320 317 316 316 317 318 320 322 327 325 325 327 323 324 324 328 308 279 281 270 270 262 258 284 307 324 329 303 244 218 209 206 203 192 191 190 189 198 202 202 184 184 198 226 221 182 189 192 187 184 196 209 213 212 207 195 179 163 161 170 182 195 211 220 240 243 238 236 226 217 207 199 198 198
338 338 337 338 335 332 331 328 326 323 322 322 322 323 321 317 313 312 313 313 315 318 321 322 323 323 322 325 329 322 299 295 307 277 270 259 253 273 288 306 337 328 256 212 199 202 202 196 195 189 195 210 199 194 183 178 202 228 219 162 184 195 197 200 199 207 213 217 216 205 176 169 183 185 173 191 213 225 239 233 228 222 211 209 207 204 203 200
336 336 335 335 332 330 327 325 326 325 324 322 321 321 318 317 314 312 310 308 311 313 314 316 318 319 317 321 329 316 299 317 3 325 308 277 257 267 279 283 297 328 290 218 197 197 200 203 200 190 207 222 195 187 186 189 206 217 208 173 181 189 196 207 213 214 207 209 214 209 201 197 189 179 172 194 212 213 211 215 217 210 203 204 206 206 204 201
332 333 332 328 326 327 328 330 331 328 325 322 320 318 315 314 314 314 308 303 303 304 307 309 312 315 311 312 319 298 295 329 336 320 315 301 279 267 270 270 271 294 291 230 209 202 199 204 203 198 231 224 200 198 193 202 205 188 196 195 202 194 192 206 214 220 213 200 203 194 191 189 178 190 197 187 195 185 181 196 202 201 199 199 202 204 203 202
326 327 326 322 324 331 335 335 332 329 326 324 318 314 313 311 312 316 312 302 298 295 296 301 305 305 303 301 273 258 295 315 312 308 298 294 286 272 265 252 258 272 272 240 221 214 206 198 193 198 224 216 198 199 204 212 214 141 180 192 211 217 225 222 212 212 211 210 205 191 193 175 170 203 196 173 186 188 183 186 190 194 196 198 198 199 201 201
329 330 329 328 332 336 334 331 328 326 323 322 318 314 312 310 312 316 314 305 299 293 287 295 298 294 300 287 259 266 304 309 305 306 297 291 281 269 264 251 251 260 262 250 223 223 215 199 191 197 208 211 185 176 222 217 213 173 173 183 200 209 230 225 213 190 192 207 190 179 227 226 192 193 174 174 182 181 182 182 187 195 196 199 198 198 200 200
335 334 333 334 336 333 326 325 325 324 322 321 319 316 312 312 315 315 313 304 299 295 286 289 288 290 298 277 268 288 310 305 307 313 300 290 279 266 266 258 252 252 254 248 206 210 214 204 204 209 215 227 177 174 239 200 196 198 193 203 182 193 224 212 205 189 187 201 169 169 232 226 184 175 170 172 175 170 180 186 190 196 197 200 200 199 201 200
336 334 334 334 331 326 323 323 324 323 322 321 318 316 315 316 316 313 310 302 297 292 284 283 282 289 284 268 283 304 306 303 317 328 301 290 289 273 263 256 252 249 244 237 204 187 200 204 210 215 223 232 239 301 349 151 184 182 173 208 205 214 210 185 190 184 184 202 172 177 240 222 155 171 176 172 176 174 182 190 194 197 198 201 201 202 203 203
336 335 336 334 329 326 325 323 322 322 321 320 316 317 320 319 314 310 306 300 296 287 279 277 275 282 277 277 293 302 297 310 335 332 319 313 311 287 255 250 244 239 233 227 215 199 191 194 203 207 219 225 243 287 180 153 183 178 183 205 206 215 190 158 184 187 185 187 179 187 236 220 152 180 181 178 182 182 187 192 196 199 200 201 203 204 205 206
336 335 333 332 330 329 325 322 321 320 319 317 315 318 322 317 312 308 305 301 292 278 270 270 272 273 275 287 299 293 281 305 310 309 310 315 316 305 291 274 243 226 222 221 222 220 203 186 192 195 201 210 220 221 172 170 190 193 210 210 195 203 197 151 177 196 185 161 186 205 214 114 161 183 182 185 188 189 194 195 198 202 200 202 203 204 205 208
332 330 327 327 328 328 324 321 319 316 315 315 316 321 323 317 313 311 310 305 290 277 264 260 272 270 264 275 280 269 272 284 302 305 291 290 302 307 307 291 260 220 210 216 228 222 202 185 178 186 202 205 194 188 184 196 197 194 211 216 191 193 191 167 145 193 184 172 193 212 212 158 142 178 180 187 192 194 199 199 202 204 202 203 204 204 206 210
331 328 327 324 323 324 323 321 318 313 312 314 318 324 324 319 318 313 311 315 306 293 265 234 234 269 265 268 274 272 272 280 297 300 289 281 288 299 310 298 259 212 197 208 222 207 190 185 180 181 196 197 186 194 197 201 204 196 198 202 173 168 187 187 160 157 181 189 196 199 206 197 134 177 182 187 192 195 202 203 204 205 205 206 205 205 209 214
332 330 330 325 318 320 323 321 318 312 311 314 319 326 325 321 321 311 313 328 312 280 269 228 211 242 272 276 284 287 287 290 295 296 289 283 283 283 301 301 252 208 188 194 203 193 185 180 188 189 194 197 196 198 194 66 248 193 170 176 173 161 185 192 176 165 178 190 199 197 199 185 161 180 186 189 191 196 205 206 205 207 209 209 207 210 213 217
331 329 331 330 321 321 325 323 318 314 313 316 322 330 340 341 335 311 304 305 293 278 272 262 248 252 266 274 280 286 289 290 289 288 284 282 283 277 286 293 258 221 203 192 180 185 190 191 202 202 203 201 196 197 198 22 46 154 146 170 187 180 178 183 185 183 182 190 199 198 194 182 176 182 189 190 188 196 204 203 205 207 209 209 210 214 217 219
333 333 336 338 332 327 326 323 319 314 314 319 326 337 355 350 339 313 310 303 301 295 277 272 266 260 267 273 276 282 289 294 288 281 280 272 264 263 265 249 226 224 209 187 165 172 190 211 216 208 207 191 179 194 225 280 30 127 171 178 186 193 180 180 190 182 189 202 192 184 191 187 183 181 187 190 188 197 202 201 205 207 208 210 212 217 220 221
338 338 340 342 336 329 324 320 316 312 314 320 326 336 332 321 311 310 313 300 301 299 284 279 274 265 271 274 273 277 279 286 285 282 284 256 235 217 176 179 215 225 192 176 176 179 198 226 216 190 138 147 167 189 211 230 277 35 188 177 183 189 167 179 200 168 186 210 172 169 192 189 185 185 185 190 193 200 203 204 206 204 206 209 212 217 219 219
338 339 337 337 331 325 320 315 312 311 313 319 325 328 318 310 308 311 310 292 294 297 287 278 268 267 277 282 278 266 249 244 272 285 283 212 206 199 177 179 218 223 187 186 197 193 203 227 190 154 152 171 177 187 199 217 228 243 192 182 183 172 168 184 192 134 149 219 157 166 185 184 187 196 194 196 199 201 205 209 210 206 208 212 213 216 216 214
337 337 332 331 327 319 314 312 312 313 313 316 319 321 315 306 307 313 312 290 285 294 292 274 262 273 278 290 284 229 226 229 242 275 258 185 195 196 183 185 208 218 206 198 202 204 212 266 161 168 184 184 178 182 191 204 215 219 215 209 177 168 183 170 137 137 117 131 148 149 166 208 198 203 202 200 203 206 210 212 213 210 211 214 215 217 216 214
339 337 330 329 324 316 312 312 316 317 311 305 305 308 307 305 307 313 317 298 278 284 293 273 263 273 261 268 259 213 224 233 238 251 213 185 193 195 183 183 197 220 217 205 206 213 222 283 168 178 185 185 182 184 191 198 204 212 223 230 192 166 178 140 133 153 154 194 181 161 188 209 192 205 201 190 198 207 209 211 213 211 208 208 212 215 216 216
339 336 330 326 321 319 318 316 318 316 312 301 290 294 302 310 311 309 310 301 288 272 257 250 236 235 279 243 222 195 203 242 280 274 232 197 192 205 203 173 193 226 216 205 215 224 212 211 189 182 183 182 190 193 189 191 197 211 208 203 190 146 139 147 160 175 180 192 184 194 219 199 177 207 201 187 193 202 201 204 210 208 203 204 207 211 213 215
338 335 330 324 320 322 318 310 310 313 313 292 272 300 314 319 310 302 299 280 298 261 190 196 204 193 317 249 182 162 224 317 322 296 237 208 192 213 225 181 190 216 185 189 215 205 189 200 214 198 186 185 197 199 184 186 195 202 159 160 180 172 133 148 170 192 199 125 150 201 227 219 211 203 192 190 197 204 202 202 205 200 197 201 206 211 214 215
341 336 330 322 318 316 304 295 301 307 296 260 277 316 324 327 306 296 308 296 319 133 196 207 212 229 354 239 201 215 286 316 309 320 276 206 190 207 234 196 190 198 183 194 208 170 175 199 207 196 195 197 197 181 171 187 194 184 143 146 173 187 176 163 161 177 159 158 190 195 192 213 217 167 180 192 199 208 208 205 205 201 199 202 206 213 217 220
343 336 329 322 320 318 308 302 305 294 241 225 275 313 321 337 310 281 242 288 332 152 214 192 203 220 78 135 209 230 277 297 242 308 338 194 188 197 243 206 189 193 198 208 219 163 170 203 202 189 203 205 182 151 159 188 195 153 146 135 137 163 169 186 214 141 139 210 213 190 183 206 209 146 180 195 202 208 208 208 211 210 212 212 210 210 213 217
343 336 328 323 326 328 324 325 316 265 238 214 231 273 310 0 302 284 256 254 312 307 203 206 205 198 159 216 229 224 248 251 239 268 300 169 187 207 260 238 190 192 202 213 227 252 251 203 197 190 204 198 169 157 163 185 188 145 154 154 128 136 122 141 204 118 178 226 213 180 182 206 223 187 189 198 201 200 198 204 212 216 217 218 214 208 205 209
342 338 332 329 336 334 327 336 341 277 231 197 212 196 175 251 260 251 259 297 296 278 243 249 222 203 202 230 247 197 213 249 243 233 237 165 182 208 258 222 182 183 185 181 210 236 270 203 184 182 192 185 168 170 173 183 181 161 178 187 172 165 155 136 145 168 215 224 189 162 171 200 226 206 191 200 195 191 196 201 207 213 216 216 213 206 202 205
344 344 342 341 345 336 328 335 346 170 174 184 187 156 163 285 253 229 263 4 317 243 170 253 236 243 222 216 240 232 237 254 226 214 228 198 180 200 222 197 167 171 182 172 186 215 247 223 189 175 186 194 184 171 176 183 184 181 181 184 185 181 177 186 182 193 215 221 68 156 162 189 235 221 186 200 198 193 197 204 207 210 212 211 205 200 200 205
349 356 357 352 348 336 329 325 320 159 178 187 169 140 146 290 260 228 240 346 274 238 17 263 250 253 236 241 258 234 222 236 212 209 221 203 193 201 225 244 233 209 180 171 173 182 200 218 199 176 180 198 196 178 177 184 187 190 183 184 189 180 174 189 193 201 203 160 51 170 172 190 239 209 188 198 202 199 200 207 211 210 210 205 194 192 199 207
355 9 5 359 357 342 329 311 250 188 197 189 157 136 202 257 255 239 239 235 258 297 295 252 263 272 260 256 263 243 223 228 204 197 196 196 195 195 227 243 232 288 91 162 178 176 177 182 186 182 168 185 198 196 178 176 185 191 189 193 194 187 183 185 187 190 169 122 98 164 183 199 190 167 190 196 201 205 206 210 214 214 210 192 181 188 199 208
358 14 8 0 1 354 335 304 243 212 205 176 145 176 233 257 261 252 259 241 262 297 280 270 274 283 279 258 257 248 230 225 199 193 185 190 193 187 210 218 205 232 180 165 173 177 181 154 170 190 153 174 190 192 159 171 185 185 163 220 205 191 158 102 120 129 112 120 135 165 206 251 194 86 43 191 201 206 211 215 217 218 206 181 182 193 201 207
355 20 18 12 3 357 337 304 253 220 201 168 159 243 231 253 242 215 249 242 253 286 292 293 262 263 287 267 253 227 208 213 210 197 181 193 202 188 203 211 183 201 208 165 152 178 183 122 136 187 188 187 187 173 176 191 179 159 184 200 189 120 110 119 112 42 89 176 163 178 226 279 216 184 54 127 188 195 205 212 211 207 194 185 191 199 202 206
347 6 22 22 8 356 344 313 252 220 195 163 212 249 239 256 239 223 236 246 260 269 281 300 246 223 292 291 302 177 182 190 198 190 170 184 200 182 198 209 174 197 214 208 116 211 190 159 158 189 192 195 189 178 189 204 175 164 191 179 113 74 56 132 153 123 189 198 167 184 216 203 189 187 77 151 185 191 199 203 202 196 189 191 199 202 202 202
347 242 19 16 5 353 351 337 226 208 186 173 249 258 252 244 228 220 224 240 269 266 255 274 218 205 272 299 329 151 171 172 169 175 168 185 199 175 185 182 185 205 204 186 205 343 219 185 164 197 193 176 176 186 194 206 224 224 183 153 127 180 192 173 161 166 186 197 178 182 212 219 205 196 162 178 190 198 199 194 191 189 191 198 204 203 198 197
352 185 16 9 4 356 353 351 194 192 179 223 257 262 255 258 259 251 248 256 263 251 236 239 226 219 238 282 335 153 182 186 163 169 178 189 186 188 193 176 183 211 185 171 198 355 297 203 160 196 199 158 159 194 194 191 212 274 163 169 198 216 197 180 153 180 190 190 189 193 205 215 206 203 192 191 195 196 191 187 190 190 194 201 203 198 193 195
359 168 7 4 6 359 352 3 177 181 196 248 255 268 272 281 279 266 257 256 253 232 217 223 223 227 229 252 276 198 201 211 184 179 184 192 180 197 217 189 167 189 166 169 206 4 0 251 159 149 182 170 178 204 197 186 182 183 184 188 185 169 193 201 190 316 210 187 185 205 225 213 187 198 204 203 202 195 184 185 192 194 197 201 200 193 190 193
14 127 351 358 5 3 357 158 179 204 254 253 256 262 271 281 282 277 267 250 242 232 229 228 225 242 258 255 256 221 207 218 207 194 174 191 211 219 216 200 172 163 147 158 217 191 133 308 41 125 172 183 171 152 182 194 189 187 191 187 185 179 169 194 200 183 93 258 196 208 249 244 177 196 212 210 205 196 191 189 189 195 200 199 194 188 187 190
15 60 333 356 5 2 321 191 217 239 232 259 276 273 277 281 279 286 279 247 238 228 229 235 231 240 250 244 249 249 228 223 207 212 197 196 222 222 194 192 178 164 169 187 207 172 149 334 351 122 174 195 165 132 195 200 184 178 197 179 178 187 192 203 202 169 153 197 52 302 280 265 125 191 249 245 234 200 200 198 191 194 197 189 181 184 187 187
0 331 305 360 8 341 272 266 255 237 238 272 286 283 280 277 269 288 292 249 233 205 210 221 206 221 236 225 221 220 225 218 198 217 220 202 223 225 188 187 177 166 185 206 159 154 160 231 282 127 132 204 154 111 235 198 173 182 208 189 185 194 201 214 196 142 195 208 188 216 263 255 138 152 269 247 195 187 194 199 196 181 178 177 178 183 184 180
341 314 282 355 3 272 258 311 297 299 300 297 303 300 287 258 236 273 286 254 219 192 216 230 191 206 233 209 204 227 234 232 212 218 225 219 226 203 181 190 186 176 191 183 143 166 182 221 238 145 136 143 151 155 181 195 193 202 199 188 191 183 170 163 96 169 212 217 202 213 254 256 190 124 109 148 159 176 187 192 190 174 171 180 181 181 180 177
343 320 273 346 349 237 231 281 288 296 309 312 312 305 295 272 249 261 268 263 242 202 224 255 163 169 189 174 192 239 256 258 232 215 229 229 236 176 177 193 202 200 185 155 156 174 189 201 208 165 150 161 171 180 184 186 192 201 196 190 186 175 173 173 170 195 207 204 191 213 242 261 260 143 117 126 156 175 181 184 182 172 172 177 178 175 176 178
1 346 323 337 329 239 245 275 277 272 300 315 311 302 306 315 304 280 269 272 246 193 227 264 133 150 186 184 208 243 239 231 223 232 252 225 232 203 177 189 203 207 188 172 173 173 141 215 218 246 231 197 204 268 34 108 170 187 194 191 181 180 188 187 190 201 192 158 186 216 240 272 282 276 195 145 173 183 176 176 174 170 174 176 175 172 174 181
24 23 352 347 323 265 259 274 280 285 298 309 313 305 313 318 321 326 326 293 223 198 226 218 170 186 196 170 194 232 216 209 214 229 244 227 247 318 186 192 200 201 198 193 180 166 334 256 223 241 253 271 284 282 302 292 212 200 189 181 178 181 187 196 210 193 155 172 204 214 216 256 271 275 263 153 182 189 180 184 177 172 175 174 171 170 173 181
28 3 3 352 321 289 294 307 315 312 306 306 297 292 314 322 329 338 328 287 261 218 231 232 197 217 222 196 199 212 185 177 199 219 226 208 215 272 175 189 198 197 205 202 175 165 265 263 211 239 259 267 265 258 255 246 240 223 193 176 177 184 191 201 214 183 167 204 220 210 216 239 258 273 318 111 185 183 175 184 179 173 173 171 169 170 175 181
22 351 313 318 298 275 282 295 305 309 307 307 296 299 321 326 329 335 333 310 307 272 174 273 288 284 264 241 219 175 175 182 187 213 220 189 192 189 154 146 194 197 207 213 180 175 258 264 190 241 283 286 274 263 245 216 220 232 213 190 180 184 192 201 206 193 193 229 274 288 268 267 265 277 1 47 172 158 155 167 171 171 171 170 171 173 178 183
30 4 320 310 297 280 281 290 302 310 306 300 301 320 327 323 324 331 324 299 302 313 125 270 300 308 304 275 229 164 195 215 195 208 211 183 182 187 179 194 190 189 198 207 196 186 229 255 355 0 308 291 280 274 246 205 202 215 216 203 187 181 188 201 204 188 183 233 256 274 290 282 273 283 50 98 149 144 157 169 172 174 174 173 175 176 179 181
35 17 330 311 302 297 303 304 302 307 308 316 331 333 334 322 318 322 312 268 254 277 295 299 300 306 308 281 237 195 201 206 209 222 227 222 215 202 224 223 165 169 187 194 179 156 200 238 331 345 299 288 296 303 232 175 178 210 220 208 192 183 184 195 196 173 178 213 227 231 253 261 267 75 85 149 156 159 173 175 172 175 176 176 176 176 178 180
17 15 4 329 297 299 325 321 307 305 311 348 338 325 313 301 304 316 319 271 244 268 288 296 299 305 307 242 239 266 266 252 245 245 246 252 260 274 272 209 158 158 175 177 157 140 151 216 272 311 284 291 329 8 141 135 138 222 230 207 190 184 177 172 180 187 191 201 201 204 230 248 303 89 195 194 185 190 188 180 177 174 172 175 177 177 180 184